TimeFrame on Redefined Productions
Outwar Sigil TimeFrame

Sigil TimeFrame

95 Gods Updated: 2019-05-18 06:53:31
NameTime LeftWindow Opens
Old World Drake4d 04:152019-05-17 12:24:00
Animated Captain1d 22:082019-05-19 18:31:00
Jade Dragonite1d 20:522019-05-19 19:47:00
Bolkor, the Holy Master1d 09:402019-05-20 06:59:00
Howldroid, Tormentor of the Pit1d 05:052019-05-20 11:34:00
Anguish1d 00:182019-05-20 16:21:00
Slashbrood, Devourer of the Blackness1d 00:142019-05-20 16:25:00
Jazzmin, Maiden of Vitality0d 23:222019-05-20 17:17:00
Skarthul the Avenged0d 22:432019-05-20 17:56:00
Q-SEC Commander0d 15:532019-05-21 00:46:00
Crane0d 15:242019-05-21 01:15:00
Ag Nabak the Abomination0d 15:132019-05-21 01:26:00
Straya, the Underworld Ruler0d 13:492019-05-21 02:50:00
Hackerphage, Protector of the Gateway0d 13:342019-05-21 03:05:00
Nayark the Mummified Sorcerer0d 12:142019-05-21 04:25:00
Gorganus of the Wood0d 08:132019-05-21 08:26:00
Sigil, Lich of Woe0d 06:572019-05-21 09:42:00
Ancient Magus Tarkin0d 06:522019-05-21 09:47:00
Samatha Dark-Soul0d 05:212019-05-21 11:18:00
Lord Narada0d 05:112019-05-21 11:28:00
Jorun the Blazing Swordsman0d 04:562019-05-21 11:43:00
Keeper of Nature0d 04:402019-05-21 11:59:00
Threk, King of Lords0d 03:582019-05-21 12:41:00
Garland, The Lord Keeper0d 03:362019-05-21 13:03:00
Baron Mu, Dark Rider of the Undead0d 01:182019-05-21 15:21:00
Traxodon the Plaguebringer0d 00:512019-05-21 15:48:00
Dlanod, the Crazed Chancellor0d 00:402019-05-21 15:59:00
Archdevil Yirkon0d 00:062019-05-21 16:46:00
Rotborn, Eater of the Dead0d 01:312019-05-21 18:11:00
Lord Varan0d 01:422019-05-21 18:22:00
Lord Suka0d 02:042019-05-21 18:44:00
Windstrike The Vile0d 04:092019-05-21 20:49:00
Ebliss, Fallen Angel of Despair0d 04:212019-05-21 21:01:00
Lord Xordam0d 04:242019-05-21 21:04:00
The Emerald Assassin0d 06:002019-05-21 22:40:00
Skybrine The Inescapable0d 06:052019-05-21 22:45:00
Shadow0d 07:032019-05-21 23:43:00
Tsort0d 08:152019-05-22 00:55:00
Hyrak, Bringer of Nightmares0d 08:302019-05-22 01:10:00
Tylos, The Lord Master0d 08:352019-05-22 01:15:00
Vitkros, Hydra of the Deep0d 09:142019-05-22 01:54:00
Anvilfist0d 09:142019-05-22 01:54:00
Melt Bane, The Forbidden Demon Dragon0d 09:542019-05-22 02:34:00
Freezebreed, The Frozen Manipulator0d 10:122019-05-22 02:52:00
Wanhiroeaz the Devourer0d 10:172019-05-22 02:57:00
Felroc, Overseer of Hellfire0d 10:322019-05-22 03:12:00
Synge, The Red Dragon0d 16:042019-05-22 08:44:00
Murderface0d 17:052019-05-22 09:45:00
Zikkir the Dark Archer0d 18:522019-05-22 11:32:00
Volgan the Living Ironbark0d 19:432019-05-22 12:23:00
King Ashnar, Lord of the Unliving0d 19:482019-05-22 12:28:00
Dreg nor, Keeper of the Infernal Essence0d 20:022019-05-22 12:42:00
Lady Chaos, Queen of the Abyss0d 20:222019-05-22 13:02:00
Gnorb0d 20:332019-05-22 13:13:00
Lord Sibannac0d 21:422019-05-22 14:22:00
Sarcrina the Astral Priestess1d 01:382019-05-22 18:18:00
Brutalitar, Lord of the Underworld1d 01:542019-05-22 18:34:00
Terrance, Rebel of Rallis1d 04:102019-05-22 20:50:00
Detox1d 04:142019-05-22 20:54:00
Lady Ariella1d 04:452019-05-22 21:25:00
Smoot the Yeti1d 05:062019-05-22 21:46:00
Nessam1d 06:032019-05-22 22:43:00
Pinosis1d 08:442019-05-23 01:24:00
Rancid, Lord of Thugs1d 10:022019-05-23 02:42:00
Mistress of the Sword1d 11:422019-05-23 04:22:00
Ganja the Stone Golem1d 13:332019-05-23 06:13:00
Bloodchill the Grizzly1d 15:152019-05-23 07:55:00
Numerocure, The Black Messenger of Evil1d 19:322019-05-23 12:12:00
Sylvanna TorLai2d 02:512019-05-23 19:31:00
Amalgamated Apparition2d 03:062019-05-23 19:46:00
Akkel the Enflamed Warrior2d 10:042019-05-24 02:44:00
Great Lord Ganeshan2d 14:542019-05-24 07:34:00
Crolvak, the Fire Master2d 16:242019-05-24 09:04:00
Crantos, Defender of Ultimation2d 17:142019-05-24 09:54:00
Esquin, the Kinetic Master2d 17:502019-05-24 10:30:00
Karvaz, Lord of Alsayic2d 20:272019-05-24 13:07:00
Zertan, The Collector2d 21:592019-05-24 14:39:00
Grivvek, Protector of the Brood2d 23:022019-05-24 15:42:00
Viserion, the Necrodragon2d 23:032019-05-24 15:43:00
Quiver, The Renegade3d 01:412019-05-24 18:21:00
Nar Zhul, Slayer of All3d 05:232019-05-24 22:03:00
Kro Shuk, Doomslayer3d 12:312019-05-25 05:11:00
Ormsul the Putrid3d 13:052019-05-25 05:45:00
Raiyar, the Shadow Master3d 21:222019-05-25 14:02:00
Nafir, God of Desolation3d 22:482019-05-25 15:28:00
Balerion, Dragon of Dread4d 02:532019-05-25 19:33:00
Xynak, the Arcane Master4d 04:412019-05-25 21:21:00
Emperor Neudeus, Controller of the Universe4d 09:512019-05-26 02:31:00
Varsanor, Master of Darkness4d 11:382019-05-26 04:18:00
Kretok, Descendant of Nature4d 18:532019-05-26 11:33:00
Lacuste of the Swarm5d 01:462019-05-26 18:26:00
Noxious Slug109d 16:502019-01-31 23:49:00
Beast of Cards108d 22:452019-02-01 17:54:00
Shaik, Servant of Arkron32d 10:072019-04-19 06:32:00
Rook, Hand of Arkron31d 04:392019-04-20 12:00:00